Regional Weather Roundup
Issued by NWS

Home | Current Version | Previous Version | Text Only | Print | Product List | Glossary Off
Versions: 1 2 3 4 5 6 7 8 9 10 11 12 13 14 15 16 17 18 19 20 21 22 23 24 25 26 27 28 29 30 31 32 33 34 35 36 37 38 39 40 41 42 43 44 45 46 47 48 49 50

000
ASUS43 KIND 250359
RWRIN

WEATHER ROUNDUP FOR INDIANA
NATIONAL WEATHER SERVICE INDIANAPOLIS IN
1200 AM EDT FRI JUL 25 2014

NOTE: "FAIR" INDICATES FEW OR NO CLOUDS BELOW 12,000 FEET WITH NO
SIGNIFICANT WEATHER AND/OR OBSTRUCTIONS TO VISIBILITY.

* - STATION DOES NOT REPORT WEATHER SUCH AS PRECIPITATION OR FOG.

+ - STATION NOT QUALITY CONTROLLED BY THE NATIONAL WEATHER SERVICE.
    USE DATA WITH CAUTION...ESPECIALLY DEWPOINT AND RELATIVE
    HUMIDITY OBSERVATIONS.

INZ001>003-010>013-019-020-250500-
NORTHWEST INDIANA

CITY           SKY/WX    TMP DP  RH WIND       PRES   REMARKS
GARY /AIRPORT/ PTCLDY    58  54  88 CALM      30.07F
KNOX *+        FAIR      54  51  88 CALM      30.07F
MONTICELLO +   PTCLDY    61  56  84 NE5       30.06F
RENSSELAER +   PTCLDY    57  55  94 NE5       30.08S
VALPARAISO     PTCLDY    55  51  86 E3        30.08F

$$

LMZ046-743>745-250500-
SOUTHERN LAKE MICHIGAN

STATION/POSITION TIME  TEMP WIND        PRES
                       AIR  DIR/SP/G
                 (UTC) (F)  (DEG/KT/KT) (MB)
MICHIGAN CITY    0300   62   90/  5/  7   N/A

$$

INZ004-005-014>016-021>024-250500-
NORTH CENTRAL INDIANA

CITY           SKY/WX    TMP DP  RH WIND       PRES   REMARKS
GOSHEN         CLEAR     61  54  77 NE5       30.07F
SOUTH BEND     PTCLDY    60  51  72 CALM      30.08F
WARSAW +       CLEAR     59  54  82 CALM      30.08F

$$

INZ006>009-017-018-025>027-250500-
NORTHEAST INDIANA

CITY           SKY/WX    TMP DP  RH WIND       PRES   REMARKS
ANGOLA *+      CLEAR     55  54  94 CALM      30.09F
AUBURN +       CLEAR     59  50  72 CALM      30.08F
FORT WAYNE     MOCLDY    61  55  81 CALM      30.08S

$$

INZ028-029-035-036-043>045-051>053-250500-
WEST CENTRAL INDIANA

CITY           SKY/WX    TMP DP  RH WIND       PRES   REMARKS
GREENCASTLE +  PTCLDY    59  55  88 CALM      30.08S
LAFAYETTE      PTCLDY    58  55  90 CALM      30.07S
TERRE HAUTE    MOCLDY    59  55  87 CALM      30.06F

$$

INZ030>032-037>040-046>048-054>057-064-065-250500-
CENTRAL INDIANA

CITY           SKY/WX    TMP DP  RH WIND       PRES   REMARKS
INDIANAPOLIS   CLEAR     64  52  64 E5        30.06F
-EAGLE CREEK   CLEAR     63  56  78 CALM      30.07F
KOKOMO *+      PTCLDY    55  48  76 CALM      30.07F
MT COMFORT *+  CLEAR     57 N/A N/A CALM      30.08F
SHELBYVILLE    CLEAR     60  55  83 E3        30.07F
ZIONSVILLE +   PTCLDY    59  55  88 CALM      30.08F

$$

INZ033-034-041-042-049-050-058-059-250500-
EAST CENTRAL INDIANA

CITY           SKY/WX    TMP DP  RH WIND       PRES   REMARKS
MUNCIE         CLEAR     58  52  80 CALM      30.08F

$$

INZ060-061-067>069-081>083-085>088-250500-
SOUTHWEST INDIANA

CITY           SKY/WX    TMP DP  RH WIND       PRES   REMARKS
EVANSVILLE     PTCLDY    67  59  75 CALM      30.06F
HUNTINGBURG *+ PTCLDY    63  55  77 CALM      30.06F

$$

INZ062-063-066-070>080-084-089>092-250500-
SOUTH CENTRAL AND SOUTHEAST INDIANA

CITY           SKY/WX    TMP DP  RH WIND       PRES   REMARKS
BLOOMINGTON    MOCLDY    57  55  93 CALM      30.07F

$$




USA.gov is the U.S. government's official web portal to all federal, state and local government web resources and services.